DAAS

Ain Arnat Airport

Airport
ICAO code
DAAS
IATA Code
QSF
Summary
ICAO Region
AFI
ICAO Territory
Location

, Setif

Serving
Setif
Elevation
3360 ft
Coordinates
36° 10' 41" N , 5° 19' 28" E
Metar
DAAS 280500Z 30004KT 7000 FEW010 SCT026 01/00 Q1010

Airport map

Aerial View

SKYbrary Partners:

Safety knowledge contributed by: